Regional Weather Roundup
Issued by NWS State College, PA

Home | Current Version | Previous Version | Text Only | Print | Product List | Glossary On
Versions: 1 2 3 4 5 6 7 8 9 10 11 12 13 14 15 16 17 18 19 20 21 22 23 24 25 26 27 28 29 30 31 32 33 34 35 36 37 38 39 40 41 42 43 44 45 46 47 48 49 50
000
ASUS41 KCTP 300010
RWRCTP

REGIONAL WEATHER ROUNDUP
NATIONAL WEATHER SERVICE STATE COLLEGE PA
800 PM EDT WED JUL 29 2015

Note: "fair" indicates few or no clouds below 12,000 feet with no
significant weather and/or obstructions to visibility.

* = STATION THAT DOES NOT REPORT PRECIPITATION /E.G. RAIN...SNOW...ETC/
    THUNDER OR FOG.

PAZ002>004-007>009-013>016-020>023-029>032-300100-
WESTERN PENNSYLVANIA

CITY           SKY/WX    TMP DP  RH WIND       PRES   REMARKS
ERIE           MOCLDY    83  64  52 S3        29.90S
MEADVILLE      LGT RAIN  82  64  54 SW5       29.94S
FRANKLIN*      PTCLDY    81  66  61 SW3       29.97S
NEW CASTLE     FAIR      85  72  65 CALM      29.94R
BEAVER COUNTY  NOT AVBL
BUTLER*        PTCLDY    82  73  74 CALM      29.96S
PITTSBURGH INT PTCLDY    86  69  56 W7        29.94S
PITTSBURGH     CLEAR     85  64  49 W7        29.93S
INDIANA*       CLEAR     82  75  78 CALM      29.98F
LATROBE        PTCLDY    84  73  70 S7        29.95R
WASHINGTON CO* NOT AVBL
$$

PAZ004>006-010>012-017>019-024>028-033>037-041-042-045-046-049>053-300100-
CENTRAL PENNSYLVANIA

CITY           SKY/WX    TMP DP  RH WIND       PRES   REMARKS
BRADFORD       CLEAR     80  65  59 S3        29.99S
DUBOIS         MOCLDY    82  69  64 S6        29.97S
CLEARFIELD     PTCLDY    81  70  69 S3        29.98R
JOHNSTOWN      CLEAR     78  67  68 S8        30.02R
ALTOONA        PTCLDY    80  72  76 S3        29.99R
STATE COLLEGE  CLEAR     81  70  69 CALM      29.97R
WILLIAMSPORT   MOCLDY    85  67  54 S5        29.91R
SELINSGROVE    PTCLDY    82  74  76 CALM      29.93R
FT INDIANTOWN  PTCLDY    83  73  71 S6        29.94R
CAPITAL CITY   PTCLDY    85  73  67 S8        29.93R
HARRISBURG     PTCLDY    85  73  67 S7        29.92R
YORK           PTCLDY    82  74  76 CALM      29.95R
$$

PAZ038>040-043-044-047-048-054-055-060>062-067>071-300100-
EASTERN PENNSYLVANIA

CITY           SKY/WX    TMP DP  RH WIND       PRES   REMARKS
SCRANTON       CLEAR     84  63  49 VRB3      29.94S
MOUNT POCONO     N/A    N/A N/A N/A MISG      30.02R
ALLENTOWN      CLEAR     82  66  58 SW6       29.93R
QUAKERTOWN*    CLEAR     82  72  69 SW6       29.96R
READING        CLEAR     83  71  67 S9        29.94R
LANCASTER      PTCLDY    82  73  74 S10       29.95R
COATESVILLE    PTCLDY    81  73  78 S3        29.98R
POTTSTOWN      CLEAR     83  72  69 S5        29.96R
BLUE BELL      CLEAR     86  73  66 SW6       29.94S
DOYLESTOWN     PTCLDY    83  72  69 SW7       29.94R
WILLOW GROVE   NOT AVBL
NORTH PHILA    PTCLDY    87  69  54 SW10      29.95R
PHILADELPHIA   MOCLDY    85  71  63 SW12      29.95R
$$



USA.gov is the U.S. government's official web portal to all federal, state and local government web resources and services.